| time (UTC) | temp F | wind direction | speed knots | gust knots | rain 1hr in | rain 24hr in | rain mn in | humidity % | barometer mb |
| 20260506103136 | 56 | 106 | 8.7 | 19.1 | 0.00 | 0.00 | 0.00 | 62 | 1008.5 |
| 20260506102638 | 56 | 90 | 7.8 | 19.1 | 0.00 | 0.00 | 0.00 | 62 | 1008.6 |
| 20260506102137 | 56 | 67 | 7.8 | 16.5 | 0.00 | 0.00 | 0.00 | 63 | 1008.7 |
| 20260506101637 | 56 | 140 | 8.7 | 16.5 | 0.00 | 0.00 | 0.00 | 59 | 1008.6 |
| 20260506101137 | 56 | 82 | 7.8 | 15.6 | 0.00 | 0.00 | 0.00 | 57 | 1008.7 |
| 20260506100637 | 56 | 131 | 8.7 | 17.4 | 0.00 | 0.00 | 0.00 | 58 | 1008.6 |
| 20260506100403 | 56 | 99 | 8.7 | 17.4 | 0.00 | 0.00 | 0.00 | 59 | 1008.6 |
| 20260506095637 | 56 | 128 | 8.7 | 19.1 | 0.00 | 0.00 | 0.00 | 59 | 1008.6 |
| 20260506095136 | 56 | 133 | 8.7 | 19.1 | 0.00 | 0.00 | 0.00 | 58 | 1008.6 |
| 20260506094638 | 56 | 130 | 8.7 | 18.2 | 0.00 | 0.00 | 0.00 | 57 | 1008.6 |
| 20260506094142 | 57 | 160 | 7.8 | 16.5 | 0.00 | 0.00 | 0.00 | 57 | 1008.4 |
| 20260506094136 | 56 | 161 | 7.8 | 18.2 | 0.00 | 0.00 | 0.00 | 57 | 1008.5 |
| 20260506093403 | 57 | 133 | 8.7 | 16.5 | 0.00 | 0.00 | 0.00 | 55 | 1008.5 |
| 20260506092637 | 57 | 148 | 7.8 | 15.6 | 0.00 | 0.00 | 0.00 | 53 | 1008.4 |
| 20260506092137 | 57 | 130 | 8.7 | 17.4 | 0.00 | 0.00 | 0.00 | 53 | 1008.4 |
| 20260506091637 | 57 | 119 | 9.6 | 17.4 | 0.00 | 0.00 | 0.00 | 53 | 1008.5 |
| 20260506091137 | 57 | 145 | 9.6 | 17.4 | 0.00 | 0.00 | 0.00 | 52 | 1008.4 |
| 20260506090637 | 57 | 142 | 8.7 | 18.2 | 0.00 | 0.00 | 0.00 | 52 | 1008.4 |
| 20260506090137 | 57 | 99 | 8.7 | 18.2 | 0.00 | 0.00 | 0.00 | 53 | 1008.4 |
| 20260506085635 | 56 | 173 | 8.7 | 20.0 | 0.00 | 0.00 | 0.00 | 53 | 1008.3 |
| 20260506085135 | 56 | 144 | 10.4 | 20.0 | 0.00 | 0.00 | 0.00 | 53 | 1008.5 |
| 20260506084634 | 56 | 126 | 9.6 | 19.1 | 0.00 | 0.00 | 0.00 | 54 | 1008.5 |
| 20260506084135 | 56 | 107 | 9.6 | 19.1 | 0.00 | 0.00 | 0.00 | 53 | 1008.6 |
| 20260506083635 | 56 | 58 | 9.6 | 20.9 | 0.00 | 0.00 | 0.00 | 51 | 1008.6 |
| 20260506083416 | 56 | 156 | 8.7 | 20.9 | 0.00 | 0.00 | 0.00 | 51 | 1008.4 |
| 20260506082635 | 56 | 144 | 9.6 | 19.1 | 0.00 | 0.00 | 0.00 | 52 | 1008.5 |
| 20260506082132 | 56 | 77 | 9.6 | 19.1 | 0.00 | 0.00 | 0.00 | 52 | 1008.5 |
| 20260506081632 | 56 | 99 | 9.6 | 17.4 | 0.00 | 0.00 | 0.00 | 53 | 1008.5 |
| 20260506081133 | 55 | 61 | 9.6 | 20.0 | 0.00 | 0.00 | 0.00 | 53 | 1008.5 |
| 20260506080633 | 55 | 121 | 10.4 | 20.0 | 0.00 | 0.00 | 0.00 | 54 | 1008.4 |
| 20260506080144 | 55 | 103 | 11.3 | 22.6 | 0.00 | 0.00 | 0.00 | 53 | 1008.6 |
| 20260506073128 | 56 | 97 | 9.6 | 22.6 | 0.00 | 0.00 | 0.00 | 48 | 1008.6 |
| 20260506072613 | 57 | 115 | 8.7 | 19.1 | 0.00 | 0.00 | 0.00 | 48 | 1008.4 |
| 20260506072111 | 56 | 138 | 7.8 | 16.5 | 0.00 | 0.00 | 0.00 | 50 | 1008.5 |
| 20260506071610 | 55 | 136 | 7.8 | 12.2 | 0.00 | 0.00 | 0.00 | 50 | 1008.3 |
| 20260506071109 | 55 | 111 | 8.7 | 15.6 | 0.00 | 0.00 | 0.00 | 50 | 1008.5 |
| 20260506070609 | 55 | 106 | 9.6 | 16.5 | 0.00 | 0.00 | 0.00 | 51 | 1008.5 |
| 20260506070106 | 55 | 82 | 9.6 | 18.2 | 0.00 | 0.00 | 0.00 | 50 | 1008.6 |
| 20260506062104 | 54 | 136 | 8.7 | 18.2 | 0.00 | 0.00 | 0.00 | 52 | 1008.8 |
| 20260506061604 | 54 | 61 | 8.7 | 18.2 | 0.00 | 0.00 | 0.00 | 52 | 1009.0 |
| 20260506061103 | 54 | 155 | 8.7 | 18.2 | 0.00 | 0.00 | 0.00 | 53 | 1009.1 |
| 20260506060556 | 54 | 121 | 7.8 | 18.2 | 0.00 | 0.00 | 0.00 | 54 | 1009.1 |
| 20260506060309 | 53 | 123 | 7.0 | 12.2 | 0.00 | 0.00 | 0.00 | 55 | 1008.8 |
| 20260506051030 | 52 | 167 | 6.1 | 12.2 | 0.00 | 0.00 | 0.00 | 59 | 1009.3 |
| 20260506050528 | 52 | 161 | 6.1 | 17.4 | 0.00 | 0.00 | 0.00 | 58 | 1009.3 |
| 20260506045029 | 52 | 80 | 7.8 | 15.6 | 0.00 | 0.00 | 0.00 | 58 | 1009.3 |
| 20260506044529 | 53 | 132 | 8.7 | 15.6 | 0.00 | 0.00 | 0.00 | 58 | 1009.3 |
| 20260506044257 | 52 | 190 | 7.8 | 17.4 | 0.00 | 0.00 | 0.00 | 58 | 1009.3 |
| 20260506043528 | 52 | 144 | 8.7 | 17.4 | 0.00 | 0.00 | 0.00 | 58 | 1009.3 |
| 20260506043029 | 52 | 156 | 8.7 | 15.6 | 0.00 | 0.00 | 0.00 | 58 | 1009.3 |
| 20260506042529 | 52 | 148 | 7.0 | 11.3 | 0.00 | 0.00 | 0.00 | 58 | 1009.3 |
| 20260506042029 | 52 | 133 | 7.0 | 13.0 | 0.00 | 0.00 | 0.00 | 59 | 1009.3 |
| 20260506041528 | 52 | 186 | 7.0 | 13.0 | 0.00 | 0.00 | 0.00 | 58 | 1009.2 |
| 20260506041028 | 52 | 148 | 7.8 | 13.9 | 0.00 | 0.00 | 0.00 | 58 | 1009.2 |
| 20260506040529 | 52 | 148 | 7.8 | 13.9 | 0.00 | 0.00 | 0.00 | 57 | 1009.2 |
| 20260506040028 | 52 | 178 | 7.8 | 13.0 | 0.00 | 0.00 | 0.00 | 58 | 1009.2 |
| 20260506035752 | 52 | 167 | 7.8 | 12.2 | 0.00 | 0.00 | 0.00 | 60 | 1009.2 |
| 20260506035028 | 52 | 190 | 7.0 | 12.2 | 0.00 | 0.00 | 0.00 | 59 | 1009.2 |
| 20260506034528 | 52 | 180 | 7.0 | 15.6 | 0.00 | 0.00 | 0.00 | 58 | 1009.3 |
| 20260506034028 | 52 | 178 | 6.1 | 15.6 | 0.00 | 0.00 | 0.00 | 58 | 1009.3 |
| 20260506033528 | 52 | 200 | 7.0 | 13.0 | 0.00 | 0.00 | 0.00 | 59 | 1009.4 |
| 20260506033028 | 52 | 170 | 7.0 | 13.0 | 0.00 | 0.00 | 0.00 | 59 | 1009.4 |
| 20260506032748 | 52 | 151 | 7.0 | 15.6 | 0.00 | 0.00 | 0.00 | 60 | 1009.4 |
| 20260506032028 | 52 | 159 | 7.0 | 15.6 | 0.00 | 0.00 | 0.00 | 60 | 1009.5 |
| 20260506031524 | 52 | 167 | 6.1 | 12.2 | 0.00 | 0.00 | 0.00 | 59 | 1009.6 |
| 20260506031024 | 52 | 173 | 6.1 | 9.6 | 0.00 | 0.00 | 0.00 | 58 | 1009.5 |
| 20260506030523 | 52 | 155 | 6.1 | 12.2 | 0.00 | 0.00 | 0.00 | 59 | 1009.6 |
| 20260506030024 | 52 | 200 | 7.0 | 12.2 | 0.00 | 0.00 | 0.00 | 58 | 1009.6 |
| 20260506025523 | 53 | 195 | 7.0 | 11.3 | 0.00 | 0.00 | 0.00 | 59 | 1009.5 |
| 20260506025024 | 53 | 140 | 7.0 | 11.3 | 0.00 | 0.00 | 0.00 | 58 | 1009.7 |
| 20260506024523 | 53 | 174 | 7.0 | 11.3 | 0.00 | 0.00 | 0.00 | 58 | 1009.7 |
| 20260506024246 | 53 | 169 | 7.0 | 11.3 | 0.00 | 0.00 | 0.00 | 58 | 1009.9 |
| 20260506023523 | 52 | 158 | 7.0 | 12.2 | 0.00 | 0.00 | 0.00 | 59 | 1010.0 |
| 20260506023024 | 52 | 153 | 7.8 | 12.2 | 0.00 | 0.00 | 0.00 | 59 | 1009.7 |
| 20260506022523 | 52 | 201 | 7.0 | 11.3 | 0.00 | 0.00 | 0.00 | 59 | 1009.6 |
| 20260506022024 | 52 | 136 | 6.1 | 11.3 | 0.00 | 0.00 | 0.00 | 60 | 1009.7 |
| 20260506021524 | 52 | 173 | 7.0 | 10.4 | 0.00 | 0.00 | 0.00 | 59 | 1009.9 |
| 20260506021243 | 53 | 132 | 7.8 | 12.2 | 0.00 | 0.00 | 0.00 | 58 | 1009.9 |
| 20260506020523 | 53 | 161 | 7.0 | 12.2 | 0.00 | 0.00 | 0.00 | 58 | 1009.9 |
| 20260506020024 | 53 | 167 | 7.8 | 13.9 | 0.00 | 0.00 | 0.00 | 58 | 1009.7 |
| 20260506015523 | 53 | 161 | 7.8 | 13.9 | 0.00 | 0.00 | 0.00 | 58 | 1009.9 |
| 20260506015022 | 53 | 152 | 7.0 | 11.3 | 0.00 | 0.00 | 0.00 | 58 | 1009.7 |
| 20260506014520 | 53 | 175 | 7.0 | 15.6 | 0.00 | 0.00 | 0.00 | 57 | 1009.7 |
| 20260506014241 | 53 | 154 | 7.0 | 15.6 | 0.00 | 0.00 | 0.00 | 59 | 1009.7 |
| 20260506013520 | 52 | 153 | 6.1 | 11.3 | 0.00 | 0.00 | 0.00 | 59 | 1009.9 |
| 20260506013018 | 52 | 171 | 7.0 | 13.9 | 0.00 | 0.00 | 0.00 | 60 | 1009.7 |
| 20260506012510 | 53 | 190 | 6.1 | 13.9 | 0.00 | 0.00 | 0.00 | 58 | 1009.6 |
| 20260506012009 | 52 | 157 | 6.1 | 13.0 | 0.00 | 0.00 | 0.00 | 59 | 1010.0 |
| 20260506011507 | 51 | 159 | 6.1 | 10.4 | 0.00 | 0.00 | 0.00 | 63 | 1009.9 |
| 20260506011015 | 51 | 109 | 7.0 | 11.3 | 0.00 | 0.00 | 0.00 | 62 | 1010.0 |
| 20260506010506 | 53 | 182 | 7.8 | 12.2 | 0.00 | 0.00 | 0.00 | 60 | 1010.0 |
| 20260506010006 | 53 | 141 | 7.0 | 12.2 | 0.00 | 0.00 | 0.00 | 60 | 1009.9 |
| 20260506005506 | 52 | 163 | 7.0 | 11.3 | 0.00 | 0.00 | 0.00 | 60 | 1009.7 |
| 20260506005005 | 53 | 153 | 7.8 | 11.3 | 0.00 | 0.00 | 0.00 | 59 | 1009.7 |
| 20260506004505 | 52 | 161 | 7.8 | 11.3 | 0.00 | 0.00 | 0.00 | 60 | 1009.9 |
| 20260506004003 | 52 | 157 | 7.8 | 13.0 | 0.00 | 0.00 | 0.00 | 60 | 1009.9 |
| 20260506003952 | 53 | 171 | 8.7 | 15.6 | 0.00 | 0.00 | 0.00 | 59 | 1010.0 |
| 20260506003003 | 53 | 175 | 7.8 | 15.6 | 0.00 | 0.00 | 0.00 | 59 | 1009.9 |
| 20260506002516 | 53 | 117 | 7.8 | 13.9 | 0.00 | 0.00 | 0.00 | 59 | 1009.9 |
| 20260506002239 | 53 | 161 | 7.0 | 13.9 | 0.00 | 0.00 | 0.00 | 59 | 1009.9 |
| 20260506001502 | 52 | 144 | 7.0 | 12.2 | 0.00 | 0.00 | 0.00 | 59 | 1009.9 |
| 20260506001235 | 53 | 133 | 7.0 | 12.2 | 0.00 | 0.00 | 0.00 | 59 | 1009.9 |
| 20260506000506 | 52 | 177 | 4.3 | 12.2 | 0.00 | 0.00 | 0.00 | 60 | 1010.0 |
| 20260506000005 | 52 | 213 | 3.5 | 7.8 | 0.00 | 0.00 | 0.00 | 60 | 1009.9 |
| 20260505235504 | 52 | 142 | 3.5 | 8.7 | 0.00 | 0.00 | 0.00 | 61 | 1009.9 |
| 20260505235001 | 52 | 197 | 4.3 | 11.3 | 0.00 | 0.00 | 0.00 | 61 | 1010.0 |
| 20260505234501 | 53 | 209 | 6.1 | 13.0 | 0.00 | 0.00 | 0.00 | 59 | 1009.9 |
| 20260505234225 | 53 | 164 | 7.0 | 16.5 | 0.00 | 0.00 | 0.00 | 59 | 1010.0 |
| 20260505233501 | 53 | 144 | 7.8 | 16.5 | 0.00 | 0.00 | 0.00 | 59 | 1010.1 |
| 20260505233001 | 52 | 94 | 6.1 | 13.0 | 0.00 | 0.00 | 0.00 | 61 | 1010.2 |
| 20260505232500 | 51 | 196 | 4.3 | 9.6 | 0.00 | 0.00 | 0.00 | 62 | 1010.1 |
| 20260505232001 | 51 | 190 | 4.3 | 9.6 | 0.00 | 0.00 | 0.00 | 61 | 1010.2 |
| 20260505231501 | 52 | 186 | 4.3 | 9.6 | 0.00 | 0.00 | 0.00 | 60 | 1010.2 |
| 20260505231001 | 52 | 207 | 4.3 | 10.4 | 0.00 | 0.00 | 0.00 | 60 | 1010.2 |
| 20260505230501 | 53 | 205 | 6.1 | 13.9 | 0.00 | 0.00 | 0.00 | 58 | 1010.2 |
| 20260505230003 | 53 | 188 | 7.0 | 13.9 | 0.00 | 0.00 | 0.00 | 58 | 1010.2 |
| 20260505225502 | 53 | 148 | 6.1 | 11.3 | 0.00 | 0.00 | 0.00 | 58 | 1010.2 |
| 20260505225002 | 53 | 122 | 4.3 | 11.3 | 0.00 | 0.00 | 0.00 | 58 | 1010.2 |
| 20260505224502 | 53 | 165 | 4.3 | 11.3 | 0.00 | 0.00 | 0.00 | 58 | 1010.3 |
| 20260505224002 | 53 | 151 | 6.1 | 11.3 | 0.00 | 0.00 | 0.00 | 58 | 1010.3 |
| 20260505223503 | 53 | 115 | 7.0 | 11.3 | 0.00 | 0.00 | 0.00 | 58 | 1010.3 |
| 20260505223227 | 53 | 140 | 7.0 | 11.3 | 0.00 | 0.00 | 0.00 | 59 | 1010.3 |
| 20260505222725 | 53 | 101 | 6.1 | 12.2 | 0.00 | 0.00 | 0.00 | 58 | 1010.3 |
| 20260505222002 | 53 | 139 | 7.0 | 13.9 | 0.00 | 0.00 | 0.00 | 58 | 1010.2 |
| 20260505221501 | 54 | 138 | 8.7 | 18.2 | 0.00 | 0.00 | 0.00 | 57 | 1010.2 |
| 20260505221001 | 54 | 119 | 7.8 | 18.2 | 0.00 | 0.00 | 0.00 | 56 | 1010.3 |
| 20260505220502 | 54 | 175 | 4.3 | 13.9 | 0.00 | 0.00 | 0.00 | 56 | 1010.2 |
| 20260505220001 | 54 | 134 | 4.3 | 13.9 | 0.00 | 0.00 | 0.00 | 56 | 1010.1 |
| 20260505215500 | 54 | 206 | 6.1 | 13.0 | 0.00 | 0.00 | 0.00 | 55 | 1010.2 |
| 20260505215228 | 54 | 175 | 7.0 | 13.0 | 0.00 | 0.00 | 0.00 | 56 | 1010.3 |
| 20260505214501 | 54 | 180 | 7.0 | 13.0 | 0.00 | 0.00 | 0.00 | 55 | 1010.3 |
| 20260505214001 | 54 | 147 | 6.1 | 10.4 | 0.00 | 0.00 | 0.00 | 56 | 1010.4 |
| 20260505213516 | 53 | 192 | 6.1 | 9.6 | 0.00 | 0.00 | 0.00 | 58 | 1010.4 |
| 20260505213002 | 53 | 195 | 6.1 | 9.6 | 0.00 | 0.00 | 0.00 | 59 | 1010.4 |
| 20260505212506 | 53 | 134 | 6.1 | 13.0 | 0.00 | 0.00 | 0.00 | 58 | 1010.5 |
| 20260505212247 | 52 | 180 | 4.3 | 13.0 | 0.00 | 0.00 | 0.00 | 60 | 1010.4 |
| 20260505211504 | 51 | 125 | 4.3 | 9.6 | 0.00 | 0.00 | 0.00 | 63 | 1010.5 |
| 20260505211008 | 51 | 135 | 4.3 | 9.6 | 0.00 | 0.00 | 0.00 | 66 | 1010.4 |
| 20260505210502 | 51 | 150 | 4.3 | 7.8 | 0.00 | 0.00 | 0.00 | 65 | 1010.5 |
| 20260505210002 | 51 | 138 | 3.5 | 7.8 | 0.00 | 0.00 | 0.00 | 65 | 1010.5 |
| 20260505205501 | 53 | 138 | 3.5 | 10.4 | 0.00 | 0.00 | 0.00 | 62 | 1010.4 |
| 20260505205231 | 54 | 123 | 6.1 | 11.3 | 0.00 | 0.00 | 0.00 | 59 | 1010.4 |
| 20260505204501 | 54 | 135 | 7.0 | 11.3 | 0.00 | 0.00 | 0.00 | 59 | 1010.5 |
| 20260505204001 | 53 | 166 | 7.0 | 13.0 | 0.00 | 0.00 | 0.00 | 61 | 1010.5 |
| 20260505203730 | 54 | 146 | 7.8 | 13.9 | 0.00 | 0.00 | 0.00 | 61 | 1010.5 |
| 20260505203002 | 54 | 154 | 8.7 | 19.1 | 0.00 | 0.00 | 0.00 | 61 | 1010.6 |
| 20260505202501 | 53 | 121 | 7.8 | 19.1 | 0.00 | 0.00 | 0.00 | 61 | 1010.6 |
| 20260505202002 | 53 | 123 | 7.8 | 13.9 | 0.00 | 0.00 | 0.00 | 61 | 1010.5 |
| 20260505201729 | 53 | 159 | 7.8 | 15.6 | 0.00 | 0.00 | 0.00 | 61 | 1010.6 |
| 20260505201225 | 54 | 138 | 7.8 | 17.4 | 0.00 | 0.00 | 0.00 | 61 | 1010.5 |
| 20260505200457 | 54 | 171 | 7.8 | 17.4 | 0.00 | 0.00 | 0.00 | 61 | 1010.3 |
| 20260505195956 | 54 | 157 | 7.8 | 16.5 | 0.00 | 0.00 | 0.00 | 61 | 1010.4 |
| 20260505195457 | 54 | 134 | 7.0 | 12.2 | 0.00 | 0.00 | 0.00 | 61 | 1010.3 |
| 20260505194957 | 54 | 129 | 7.0 | 15.6 | 0.00 | 0.00 | 0.00 | 60 | 1010.3 |
| 20260505194454 | 54 | 176 | 7.0 | 15.6 | 0.00 | 0.00 | 0.00 | 60 | 1010.3 |
| 20260505193956 | 54 | 157 | 7.8 | 13.0 | 0.00 | 0.00 | 0.00 | 60 | 1010.1 |
| 20260505193459 | 54 | 120 | 7.8 | 13.0 | 0.00 | 0.00 | 0.00 | 60 | 1010.0 |
| 20260505192957 | 54 | 131 | 7.0 | 13.0 | 0.00 | 0.00 | 0.00 | 61 | 1010.0 |
| 20260505192456 | 53 | 155 | 7.8 | 15.6 | 0.00 | 0.00 | 0.00 | 61 | 1010.0 |
| 20260505191952 | 53 | 146 | 7.8 | 15.6 | 0.00 | 0.00 | 0.00 | 62 | 1009.9 |
| 20260505191452 | 53 | 152 | 6.1 | 13.9 | 0.00 | 0.00 | 0.00 | 62 | 1009.9 |
| 20260505190952 | 53 | 148 | 6.1 | 12.2 | 0.00 | 0.00 | 0.00 | 64 | 1009.7 |
| 20260505190452 | 53 | 146 | 6.1 | 10.4 | 0.00 | 0.00 | 0.00 | 64 | 1009.7 |
| 20260505185951 | 53 | 123 | 7.0 | 12.2 | 0.00 | 0.00 | 0.00 | 62 | 1009.7 |
| 20260505185452 | 54 | 130 | 7.8 | 15.6 | 0.00 | 0.00 | 0.00 | 62 | 1009.9 |
| 20260505185215 | 54 | 126 | 8.7 | 17.4 | 0.00 | 0.00 | 0.00 | 61 | 1010.0 |
| 20260505184452 | 54 | 144 | 7.8 | 17.4 | 0.00 | 0.00 | 0.00 | 61 | 1009.6 |
| 20260505184442 | 54 | 153 | 7.8 | 16.5 | 0.00 | 0.00 | 0.00 | 61 | 1009.4 |
| 20260505183440 | 54 | 150 | 8.7 | 16.5 | 0.00 | 0.00 | 0.00 | 60 | 1009.4 |
| 20260505182936 | 54 | 141 | 8.7 | 16.5 | 0.00 | 0.00 | 0.00 | 60 | 1009.3 |
| 20260505182436 | 55 | 127 | 8.7 | 16.5 | 0.00 | 0.00 | 0.00 | 60 | 1009.3 |
| 20260505181936 | 55 | 136 | 7.8 | 16.5 | 0.00 | 0.00 | 0.00 | 59 | 1009.4 |
| 20260505181436 | 55 | 181 | 8.7 | 20.0 | 0.00 | 0.00 | 0.00 | 59 | 1009.4 |
| 20260505180936 | 55 | 151 | 8.7 | 20.0 | 0.00 | 0.00 | 0.00 | 59 | 1009.5 |
| 20260505180436 | 55 | 199 | 8.7 | 17.4 | 0.00 | 0.00 | 0.00 | 59 | 1009.4 |
| 20260505175935 | 55 | 156 | 9.6 | 18.2 | 0.00 | 0.00 | 0.00 | 58 | 1009.4 |
| 20260505175436 | 55 | 173 | 8.7 | 18.2 | 0.00 | 0.00 | 0.00 | 58 | 1009.5 |
| 20260505174936 | 55 | 180 | 7.8 | 16.5 | 0.00 | 0.00 | 0.00 | 57 | 1009.4 |
| 20260505174436 | 55 | 196 | 7.8 | 20.0 | 0.00 | 0.00 | 0.00 | 57 | 1009.6 |
| 20260505174430 | 56 | 154 | 9.6 | 20.0 | 0.00 | 0.00 | 0.00 | 57 | 1009.5 |
| 20260505173435 | 56 | 142 | 9.6 | 17.4 | 0.00 | 0.00 | 0.00 | 56 | 1009.4 |
| 20260505172937 | 56 | 152 | 7.0 | 16.5 | 0.00 | 0.00 | 0.00 | 56 | 1009.4 |
| 20260505172436 | 56 | 148 | 7.0 | 13.0 | 0.00 | 0.00 | 0.00 | 56 | 1009.4 |
| 20260505171937 | 56 | 157 | 7.0 | 13.0 | 0.00 | 0.00 | 0.00 | 55 | 1009.4 |
| 20260505171438 | 56 | 157 | 6.1 | 12.2 | 0.00 | 0.00 | 0.00 | 55 | 1009.3 |
| 20260505170937 | 56 | 186 | 4.3 | 12.2 | 0.00 | 0.00 | 0.00 | 56 | 1009.2 |
| 20260505170437 | 56 | 167 | 3.5 | 10.4 | 0.00 | 0.00 | 0.00 | 56 | 1009.0 |
| 20260505170210 | 56 | 138 | 6.1 | 11.3 | 0.00 | 0.00 | 0.00 | 56 | 1009.3 |
| 20260505165438 | 56 | 144 | 7.0 | 12.2 | 0.00 | 0.00 | 0.00 | 56 | 1009.3 |
| 20260505164929 | 56 | 129 | 7.0 | 15.6 | 0.00 | 0.00 | 0.00 | 56 | 1009.4 |
| 20260505164431 | 56 | 113 | 7.0 | 15.6 | 0.00 | 0.00 | 0.00 | 56 | 1009.5 |
| 20260505163930 | 56 | 100 | 7.8 | 13.9 | 0.00 | 0.00 | 0.00 | 56 | 1009.6 |
| 20260505163431 | 56 | 146 | 7.8 | 15.6 | 0.00 | 0.00 | 0.00 | 56 | 1009.7 |
| 20260505163159 | 56 | 13 | 7.8 | 15.6 | 0.00 | 0.00 | 0.00 | 56 | 1009.9 |
| 20260505162432 | 56 | 135 | 7.8 | 15.6 | 0.00 | 0.00 | 0.00 | 56 | 1009.7 |
| 20260505161930 | 56 | 142 | 8.7 | 16.5 | 0.00 | 0.00 | 0.00 | 56 | 1009.7 |
| 20260505161431 | 57 | 160 | 9.6 | 18.2 | 0.00 | 0.00 | 0.00 | 56 | 1010.0 |
| 20260505160931 | 57 | 105 | 8.7 | 18.2 | 0.00 | 0.00 | 0.00 | 56 | 1010.1 |
| 20260505160430 | 57 | 156 | 7.8 | 16.5 | 0.00 | 0.00 | 0.00 | 56 | 1010.3 |
| 20260505152930 | 56 | 114 | 8.7 | 15.6 | 0.00 | 0.00 | 0.00 | 59 | 1010.4 |
| 20260505152429 | 56 | 155 | 9.6 | 17.4 | 0.00 | 0.00 | 0.00 | 59 | 1010.4 |
| 20260505151929 | 56 | 163 | 9.6 | 18.2 | 0.00 | 0.00 | 0.00 | 60 | 1010.5 |
| 20260505151429 | 56 | 163 | 8.7 | 18.2 | 0.00 | 0.00 | 0.00 | 60 | 1010.6 |
| 20260505151154 | 56 | 150 | 7.8 | 16.5 | 0.00 | 0.00 | 0.00 | 61 | 1010.5 |
| 20260505150429 | 55 | 134 | 8.7 | 16.5 | 0.00 | 0.00 | 0.00 | 63 | 1010.6 |
| 20260505140430 | 57 | 107 | 7.8 | 16.5 | 0.00 | 0.00 | 0.00 | 56 | 1010.3 |
| 20260505124423 | 58 | 141 | 6.1 | 11.3 | 0.00 | 0.00 | 0.00 | 55 | 1010.5 |
| 20260505123924 | 58 | 65 | 6.1 | 11.3 | 0.00 | 0.00 | 0.00 | 53 | 1010.6 |
| 20260505123423 | 58 | 141 | 6.1 | 13.9 | 0.00 | 0.00 | 0.00 | 53 | 1010.6 |
| 20260505122923 | 58 | 144 | 6.1 | 13.9 | 0.00 | 0.00 | 0.00 | 53 | 1010.5 |
| 20260505122647 | 58 | 140 | 6.1 | 11.3 | 0.00 | 0.00 | 0.00 | 54 | 1010.6 |
| 20260505122143 | 58 | 128 | 7.0 | 11.3 | 0.00 | 0.00 | 0.00 | 54 | 1010.8 |
| 20260505121655 | 58 | 152 | 7.0 | 13.9 | 0.00 | 0.00 | 0.00 | 53 | 1010.8 |
| 20260505120923 | 58 | 147 | 7.0 | 13.9 | 0.00 | 0.00 | 0.00 | 52 | 1010.9 |
| 20260505120423 | 58 | 129 | 7.0 | 16.5 | 0.00 | 0.00 | 0.00 | 52 | 1010.9 |
| 20260505115924 | 59 | 140 | 6.1 | 16.5 | 0.00 | 0.00 | 0.00 | 52 | 1010.9 |
| 20260505115424 | 59 | 153 | 4.3 | 10.4 | 0.00 | 0.00 | 0.00 | 51 | 1010.8 |
| 20260505114925 | 59 | 171 | 4.3 | 12.2 | 0.00 | 0.00 | 0.00 | 51 | 1010.6 |
| 20260505114423 | 59 | 124 | 4.3 | 13.0 | 0.00 | 0.00 | 0.00 | 53 | 1010.8 |
| 20260505113922 | 59 | 127 | 6.1 | 13.0 | 0.00 | 0.00 | 0.00 | 51 | 1010.8 |
| 20260505113701 | 59 | 153 | 4.3 | 11.3 | 0.00 | 0.00 | 0.00 | 50 | 1010.5 |
| 20260505112904 | 60 | 112 | 6.1 | 13.9 | 0.00 | 0.00 | 0.00 | 50 | 1010.6 |
| 20260505112624 | 60 | 119 | 7.0 | 16.5 | 0.00 | 0.00 | 0.00 | 51 | 1010.9 |
| 20260505111857 | 59 | 140 | 8.7 | 19.1 | 0.00 | 0.00 | 0.00 | 51 | 1011.0 |
| 20260505111357 | 59 | 175 | 7.8 | 19.1 | 0.00 | 0.00 | 0.00 | 51 | 1011.1 |
| 20260505110857 | 60 | 207 | 4.3 | 15.6 | 0.00 | 0.00 | 0.00 | 51 | 1010.9 |
| 20260505110357 | 60 | 204 | 6.1 | 15.6 | 0.00 | 0.00 | 0.00 | 50 | 1011.0 |